EW0139 Weather Reports


Display with metric or nautical units.
time (UTC)temp
F
wind
direction
speed
MPH
gust
MPH
rain 1hr
in
rain 24hr
in
rain mn
in
humidity
%
barometer
mb
20260508122741 33 315 0.0 0.0 0.00 0.02 0.00 78 1011.1
20260508121742 33 315 0.0 2.0 0.00 0.02 0.00 78 1010.9
20260508120744 34 315 0.0 3.0 0.00 0.02 0.00 77 1010.7
20260508115749 34 315 0.0 0.0 0.00 0.02 0.00 76 1010.7
20260508114752 34 315 0.0 1.0 0.00 0.02 0.00 75 1010.6
20260508113753 36 315 0.0 1.0 0.00 0.02 0.00 73 1010.6
20260508112756 36 315 0.0 3.0 0.00 0.02 0.00 72 1010.6
20260508111756 38 315 1.0 5.0 0.00 0.02 0.00 68 1010.5
20260508110742 38 302 4.0 5.0 0.00 0.02 0.00 68 1010.5
20260508105741 39 313 4.0 6.0 0.00 0.02 0.00 67 1010.3
20260508104744 39 311 0.0 7.0 0.00 0.02 0.00 66 1010.3
20260508103749 40 331 5.0 9.0 0.00 0.02 0.00 65 1010.2
20260508102750 40 339 4.0 5.0 0.00 0.02 0.00 66 1010.2
20260508101755 39 299 2.0 3.0 0.00 0.02 0.00 68 1010.0
20260508100756 39 296 0.0 3.0 0.00 0.02 0.00 68 1009.9
20260508095756 40 296 2.0 4.0 0.00 0.02 0.00 67 1009.9
20260508094759 39 296 2.0 2.0 0.00 0.02 0.00 68 1009.7
20260508093742 39 279 1.0 5.0 0.00 0.02 0.00 70 1009.6
20260508092743 40 304 2.0 2.0 0.00 0.02 0.00 69 1009.5
20260508091741 40 304 2.0 9.0 0.00 0.02 0.00 69 1009.3
20260508090801 40 274 5.0 10.0 0.00 0.02 0.00 71 1009.2
20260508085745 38 277 4.0 4.0 0.00 0.02 0.00 76 1009.1
20260508084746 36 275 1.0 7.0 0.00 0.02 0.00 79 1009.0
20260508083746 36 262 1.0 2.0 0.00 0.02 0.00 80 1009.0
20260508082749 36 262 0.0 0.0 0.00 0.02 0.00 81 1008.8
20260508081753 37 262 0.0 0.0 0.00 0.02 0.00 79 1008.8
20260508080755 37 262 0.0 0.0 0.00 0.02 0.00 80 1008.8
20260508075755 38 262 0.0 0.0 0.00 0.02 0.00 79 1008.7
20260508074817 40 262 0.0 1.0 0.00 0.02 0.00 75 1008.6
20260508073755 41 262 0.0 1.0 0.00 0.02 0.00 72 1008.5
20260508072742 42 262 0.0 1.0 0.00 0.02 0.00 73 1008.5
20260508071804 43 262 1.0 3.0 0.00 0.02 0.00 72 1008.4
20260508070744 43 262 2.0 3.0 0.00 0.02 0.00 76 1008.4
20260508065744 43 262 1.0 4.0 0.00 0.02 0.00 73 1008.3
20260508064747 42 262 2.0 4.0 0.00 0.02 0.00 75 1008.3
20260508063751 40 262 2.0 3.0 0.00 0.02 0.00 80 1008.2
20260508062754 40 262 1.0 2.0 0.00 0.02 0.00 80 1008.2
20260508061817 40 262 0.0 0.0 0.00 0.02 0.00 81 1008.1
20260508060738 41 262 0.0 2.0 0.00 0.02 0.00 80 1008.0
20260508055746 42 262 0.0 3.0 0.00 0.02 0.02 78 1007.9
20260508054747 42 262 1.0 5.0 0.00 0.02 0.02 80 1007.9
20260508053748 44 200 3.0 3.0 0.00 0.02 0.02 77 1007.8
20260508052746 45 195 0.0 0.0 0.00 0.02 0.02 76 1007.7
20260508051751 46 194 0.0 0.0 0.00 0.02 0.02 74 1007.6
20260508050754 47 195 0.0 1.0 0.00 0.02 0.02 74 1007.6
20260508045756 47 195 0.0 3.0 0.00 0.02 0.02 72 1007.6
20260508044756 48 195 0.0 4.0 0.00 0.02 0.02 71 1007.6
20260508043739 49 195 3.0 4.0 0.00 0.02 0.02 73 1007.5
20260508042744 49 194 3.0 5.0 0.00 0.02 0.02 73 1007.4
20260508041744 48 188 3.0 5.0 0.00 0.02 0.02 75 1007.3
20260508040744 47 64 1.0 2.0 0.00 0.02 0.02 75 1007.2
20260508035748 48 63 0.0 3.0 0.00 0.02 0.02 74 1007.2
20260508034746 49 63 0.0 2.0 0.00 0.02 0.02 74 1007.2
20260508033745 49 63 0.0 3.0 0.00 0.02 0.02 73 1007.2
20260508032807 50 63 1.0 2.0 0.00 0.02 0.02 73 1007.1
20260508031748 51 63 0.0 0.0 0.00 0.02 0.02 71 1007.2
20260508030751 52 63 0.0 0.0 0.00 0.02 0.02 71 1006.9
20260508025750 53 63 1.0 2.0 0.00 0.02 0.02 70 1006.8
20260508024751 52 63 2.0 5.0 0.00 0.02 0.02 71 1006.8
20260508023753 53 15 2.0 2.0 0.00 0.02 0.02 69 1006.9
20260508022757 54 16 0.0 0.0 0.01 0.02 0.02 71 1006.8
20260508021800 55 16 0.0 4.0 0.02 0.02 0.02 67 1006.5
20260508020742 55 5 3.0 5.0 0.02 0.02 0.02 66 1006.6
20260508015745 56 248 0.0 5.0 0.02 0.02 0.02 63 1006.9
20260508014751 56 313 1.0 4.0 0.02 0.02 0.02 66 1007.1
20260508013815 56 313 4.0 10.0 0.02 0.02 0.02 68 1007.3
20260508012817 57 308 7.0 27.0 0.01 0.01 0.01 62 1007.4
20260508011756 64 279 17.0 26.0 0.00 0.00 0.00 42 1007.4
20260508010757 65 209 10.0 13.0 0.00 0.00 0.00 39 1006.4
20260508005741 66 210 6.0 13.0 0.00 0.00 0.00 37 1006.1
20260508004741 67 246 9.0 14.0 0.00 0.00 0.00 37 1006.2
20260508003743 67 220 13.0 17.0 0.00 0.00 0.00 36 1006.2
20260508002742 68 235 6.0 11.0 0.00 0.00 0.00 32 1006.3
20260508001741 68 227 7.0 13.0 0.00 0.00 0.00 32 1006.2
20260508000745 68 257 5.0 16.0 0.00 0.00 0.00 32 1006.4
20260507235745 68 209 10.0 10.0 0.00 0.00 0.00 29 1006.5
20260507234744 68 263 8.0 19.0 0.00 0.00 0.00 30 1006.6
20260507233743 67 246 6.0 11.0 0.00 0.00 0.00 29 1006.7
20260507232808 67 277 14.0 15.0 0.00 0.00 0.00 30 1006.9
20260507231748 67 293 8.0 13.0 0.00 0.00 0.00 30 1006.8
20260507230751 67 232 9.0 19.0 0.00 0.00 0.00 28 1006.7
20260507225751 67 271 10.0 16.0 0.00 0.00 0.00 28 1007.1
20260507224750 67 254 7.0 19.0 0.00 0.00 0.00 30 1007.1
20260507223749 67 267 14.0 19.0 0.00 0.00 0.00 28 1007.2
20260507222751 67 254 14.0 17.0 0.00 0.00 0.00 28 1007.3
20260507221753 67 277 10.0 20.0 0.00 0.00 0.00 28 1007.5
20260507220751 67 248 10.0 20.0 0.00 0.00 0.00 28 1007.6
20260507215756 66 273 9.0 28.0 0.00 0.00 0.00 29 1007.8
20260507214817 66 263 22.0 23.0 0.00 0.00 0.00 29 1007.8
20260507213741 66 271 21.0 25.0 0.00 0.00 0.00 29 1007.8
20260507212801 66 298 22.0 22.0 0.00 0.00 0.00 28 1008.0
20260507211742 65 266 14.0 18.0 0.00 0.00 0.00 28 1008.3
20260507210741 65 236 10.0 21.0 0.00 0.00 0.00 29 1008.5
20260507205740 65 269 17.0 19.0 0.00 0.00 0.00 27 1008.4
20260507204745 64 223 15.0 19.0 0.00 0.00 0.00 28 1008.6
20260507203746 62 268 10.0 15.0 0.00 0.00 0.00 29 1008.7
20260507202750 64 296 14.0 22.0 0.00 0.00 0.00 29 1008.8
20260507201750 63 257 9.0 18.0 0.00 0.00 0.00 29 1008.9
20260507200750 62 279 5.0 15.0 0.00 0.00 0.00 27 1009.2
20260507195755 63 315 6.0 18.0 0.00 0.00 0.00 25 1009.2
20260507194756 62 262 9.0 11.0 0.00 0.00 0.00 26 1009.2
20260507193756 62 254 6.0 16.0 0.00 0.00 0.00 28 1009.3
20260507192757 62 292 5.0 13.0 0.00 0.00 0.00 27 1009.4
20260507191744 61 293 14.0 15.0 0.00 0.00 0.00 27 1009.5
20260507190742 60 296 5.0 13.0 0.00 0.00 0.00 28 1009.6
20260507185743 60 315 11.0 13.0 0.00 0.00 0.00 27 1009.7
20260507184746 60 297 4.0 13.0 0.00 0.00 0.00 29 1009.7
20260507183745 59 221 6.0 10.0 0.00 0.00 0.00 29 1009.7
20260507182749 59 263 1.0 6.0 0.00 0.00 0.00 29 1009.6
20260507181751 59 296 6.0 13.0 0.00 0.00 0.00 28 1009.5
20260507180750 58 313 3.0 7.0 0.00 0.00 0.00 30 1009.7
20260507175751 57 300 3.0 5.0 0.00 0.00 0.00 29 1009.8
20260507174756 57 293 8.0 10.0 0.00 0.00 0.00 30 1009.9
20260507173741 56 277 1.0 5.0 0.00 0.00 0.00 29 1010.0
20260507172742 56 260 6.0 10.0 0.00 0.00 0.00 30 1010.1
20260507171744 56 238 0.0 8.0 0.00 0.00 0.00 29 1010.2
20260507170810 56 181 2.0 5.0 0.00 0.00 0.00 31 1009.4
20260507165751 55 263 9.0 9.0 0.00 0.00 0.00 31 1009.5
20260507164753 56 267 4.0 7.0 0.00 0.00 0.00 30 1009.6
20260507163753 55 50 1.0 4.0 0.00 0.00 0.00 32 1009.6
20260507162753 54 86 0.0 5.0 0.00 0.00 0.00 31 1009.7
20260507161818 54 86 3.0 3.0 0.00 0.00 0.00 32 1009.5
20260507160756 53 86 1.0 6.0 0.00 0.00 0.00 32 1009.6
20260507155740 51 156 0.0 6.0 0.00 0.00 0.00 32 1009.7
20260507154739 52 161 5.0 9.0 0.00 0.00 0.00 31 1009.6
20260507153747 51 123 6.0 10.0 0.00 0.00 0.00 32 1009.6
20260507152748 51 138 6.0 8.0 0.00 0.00 0.00 33 1009.6
20260507151748 50 132 2.0 7.0 0.00 0.00 0.00 34 1009.7
20260507150750 49 124 4.0 7.0 0.00 0.00 0.00 33 1009.8
20260507145754 49 114 4.0 7.0 0.00 0.00 0.00 35 1009.7
20260507144757 48 122 3.0 8.0 0.00 0.00 0.00 36 1009.7
20260507143757 46 99 4.0 9.0 0.00 0.00 0.00 36 1009.7
20260507142757 46 111 6.0 10.0 0.00 0.00 0.00 35 1009.7
20260507141740 45 114 6.0 8.0 0.00 0.00 0.00 36 1009.8
20260507140803 44 94 6.0 10.0 0.00 0.00 0.00 37 1009.7
20260507135742 43 82 2.0 7.0 0.00 0.00 0.00 38 1009.7
20260507134743 43 82 5.0 9.0 0.00 0.00 0.00 38 1009.5
20260507133744 42 67 2.0 5.0 0.00 0.00 0.00 43 1009.4
20260507132748 40 33 4.0 6.0 0.00 0.00 0.00 43 1009.4
20260507131750 39 30 5.0 6.0 0.00 0.00 0.00 42 1009.6
20260507130751 38 45 5.0 6.0 0.00 0.00 0.00 44 1009.5
20260507125753 37 37 4.0 7.0 0.00 0.00 0.00 44 1009.6
20260507124740 36 38 4.0 11.0 0.00 0.00 0.00 44 1009.4
20260507123741 36 47 9.0 11.0 0.00 0.00 0.00 45 1009.3